Regional Weather Roundup
Issued by NWS

Home | Current Version | Previous Version | Text Only | Print | Product List | Glossary On
Versions: 1 2 3 4 5 6 7 8 9 10 11 12 13 14 15 16 17 18 19 20 21 22 23 24 25 26 27
000
ASUS44 KBMX 260610
RWRAL

ALABAMA REGIONAL WEATHER ROUNDUP
NATIONAL WEATHER SERVICE BIRMINGHAM AL
100 AM CDT TUE JUL 26 2016

NOTE: "FAIR" INDICATES FEW OR NO CLOUDS BELOW 12,000 FEET
WITH NO SIGNIFICANT WEATHER AND/OR OBSTRUCTIONS TO VISIBILITY.

THE REMARK "TC" DENOTES TEMPERATURE IN DEGREES CELSIUS.

ALZ001>011-014-016>018-020-260700-
NORTH ALABAMA

CITY           SKY/WX    TMP DP  RH WIND       PRES   REMARKS
MUSCLE SHOALS  PTCLDY    77  73  87 CALM      30.02S
6HR MIN TEMP:  77; 6HR MAX TEMP:  91;

HUNTSVILLE     MOCLDY    80  70  71 S10       30.02F
6HR MIN TEMP:  80; 6HR MAX TEMP:  96;

DECATUR        CLOUDY    80  72  76 S9        30.02F
6HR MIN TEMP:  78; 6HR MAX TEMP:  95;

HALEYVILLE     FAIR      76  73  91 CALM      30.06S
6HR MIN TEMP:  76; 6HR MAX TEMP:  90; 6HR PCP:  0.01;

GADSDEN        CLOUDY    76  73  91 NE3         N/A
6HR MIN TEMP:  76; 6HR MAX TEMP:  89; 6HR PCP: TRACE;

$$

ALZ012-013-022-023-030>036-040>044-260700-
WEST CENTRAL ALABAMA

CITY           SKY/WX    TMP DP  RH WIND       PRES   REMARKS
TUSCALOOSA     CLEAR     80  72  76 E5        30.01F
6HR MIN TEMP:  80; 6HR MAX TEMP:  92;

$$

ALZ015-024>027-033>036-040>044-260700-
CENTRAL ALABAMA

CITY           SKY/WX    TMP DP  RH WIND       PRES   REMARKS
BIRMINGHAM     PTCLDY    76  73  91 CALM      30.06F
6HR MIN TEMP:  76; 6HR MAX TEMP:  92; 6HR PCP:  0.01;

MONTGOMERY     CLEAR     79  70  74 CALM      30.02F
6HR MIN TEMP:  78; 6HR MAX TEMP:  91;

SHELBY CO ARPT CLEAR     76  74  93 CALM      30.05S
6HR MIN TEMP:  76; 6HR MAX TEMP:  80; 6HR PCP:  0.03;

MAXWELL AFB    CLEAR     78  72  82 CALM      30.02S
6HR MIN TEMP:  78; 6HR MAX TEMP:  91;

GREENVILLE     FAIR      77  70  79 SE3       30.01F
6HR MIN TEMP:  76; 6HR MAX TEMP:  88;

$$

ALZ019-021-028-029-037-038-045>048-260700-
EAST CENTRAL ALABAMA

CITY           SKY/WX    TMP DP  RH WIND       PRES   REMARKS
ANNISTON       MOCLDY    76  73  91 E5        30.06F
6HR MIN TEMP:  76; 6HR MAX TEMP:  80; 6HR PCP: TRACE;

ALEXANDER CITY CLEAR     74  74 100 CALM      30.06S
6HR MIN TEMP:  73; 6HR MAX TEMP:  76;

AUBURN         CLEAR     76  72  87 CALM      30.08S
6HR MIN TEMP:  76; 6HR MAX TEMP:  83;

$$

ALZ051>064-260700-
SOUTHWEST ALABAMA

CITY           SKY/WX    TMP DP  RH WIND       PRES   REMARKS
MOBILE         CLEAR     78  75  90 MISG      29.97S
6HR MIN TEMP:  78; 6HR MAX TEMP:  86; 6HR PCP: TRACE;

BROOKLEY FIELD CLEAR     82  77  84 E9        29.97S HX  90
6HR MIN TEMP:  82; 6HR MAX TEMP:  87;

EVERGREEN      CLEAR     76  72  87 SE6       30.01F
6HR MIN TEMP:  74; 6HR MAX TEMP:  84;

$$

ALZ049-050-065>069-260700-
SOUTHEAST ALABAMA

CITY           SKY/WX    TMP DP  RH WIND       PRES   REMARKS
DOTHAN         CLEAR     75  73  93 SE3       30.07S
6HR MIN TEMP:  75; 6HR MAX TEMP:  85;

OZARK          CLEAR     75  73  93 E5        30.03S
6HR MIN TEMP:  75; 6HR MAX TEMP:  86;

TROY           CLEAR     75  73  93 CALM      30.04F
6HR MIN TEMP:  73; 6HR MAX TEMP:  87;

EUFAULA        FAIR      74  71  91 CALM      30.03F
6HR MIN TEMP:  74; 6HR MAX TEMP:  91;

$$




USA.gov is the U.S. government's official web portal to all federal, state and local government web resources and services.